Location: Sungai Bunut
(2.6333°N, 113.7333°E)
Time: 02:03:52
(UTC+00:00)

Vanguard 3 - Pass Details

Date: 06 December 2023
Orbit: 508 x 3239 km, 33.4° (Epoch: 24 February)

Event Time Altitude Azimuth Distance (km) Brightness Sun altitude
Rises 22:42:58 0° 286° (WNW) 2,606 9.1 5.2°
Reaches altitude 10° 22:45:06 10° 275° (W) 1,789 8.4 5.7°
Maximum altitude 22:48:37 31° 210° (SSW) 1,095 7.9 6.5°
Drops below altitude 10° 22:53:22 10° 147° (SSE) 2,447 10.7 7.5°
Sets 22:56:48 0° 138° (SE) 3,779 11.9 8.3°
